GW4747 Weather Reports


Display with metric or nautical units.
time (UTC)temp
F
wind
direction
speed
MPH
gust
MPH
rain 1hr
in
rain 24hr
in
rain mn
in
humidity
%
barometer
mb
20260507103004 57 337 0.0 0.0 0.00 0.00 0.00 88 1016.7
20260507101504 57 337 0.0 0.0 0.00 0.00 0.00 88 1016.8
20260507100012 57 337 0.0 0.0 0.00 0.00 0.00 88 1016.7
20260507094512 57 337 0.0 0.0 0.00 0.00 0.00 88 1017.0
20260507093021 57 337 0.0 0.0 0.00 0.00 0.00 88 1017.0
20260507091503 58 337 0.0 0.0 0.00 0.00 0.00 88 1017.2
20260507090011 58 338 0.0 0.0 0.00 0.00 0.00 88 1017.3
20260507084517 58 337 0.0 0.0 0.00 0.00 0.00 88 1017.5
20260507083015 58 337 0.0 0.0 0.00 0.00 0.00 88 1017.6
20260507081524 58 337 0.0 0.0 0.00 0.00 0.00 88 1017.7
20260507080007 58 337 0.0 0.0 0.00 0.00 0.00 87 1017.8
20260507074508 59 337 0.0 0.0 0.00 0.00 0.00 86 1017.9
20260507073014 59 337 0.0 0.0 0.00 0.00 0.00 87 1017.8
20260507071518 60 337 0.0 0.0 0.00 0.00 0.00 86 1017.7
20260507070022 60 314 0.0 0.0 0.00 0.00 0.00 87 1017.9
20260507064506 59 273 0.0 0.0 0.00 0.00 0.00 87 1018.0
20260507063007 60 273 0.0 0.0 0.00 0.00 0.00 86 1018.1
20260507061516 60 273 0.0 0.0 0.00 0.00 0.00 86 1018.1
20260507060028 60 273 0.0 0.0 0.00 0.00 0.00 85 1018.1
20260507054522 60 273 0.0 0.0 0.00 0.00 0.00 84 1018.0
20260507053010 61 273 0.0 0.0 0.00 0.00 0.00 84 1018.0
20260507051514 61 273 0.0 0.0 0.00 0.00 0.00 83 1018.0
20260507050017 61 273 0.0 0.0 0.00 0.00 0.00 82 1018.0
20260507044544 61 273 0.0 0.0 0.00 0.00 0.00 80 1017.9
20260507043024 61 273 0.0 0.0 0.00 0.00 0.00 80 1017.8
20260507041510 62 273 0.0 0.0 0.00 0.00 0.00 79 1017.8
20260507040017 62 273 0.0 0.0 0.00 0.00 0.00 78 1017.8
20260507034522 62 247 0.0 0.0 0.00 0.00 0.00 77 1017.6
20260507033025 62 246 0.0 0.0 0.00 0.00 0.00 77 1017.4
20260507031525 63 300 0.0 0.0 0.00 0.00 0.00 76 1017.2
20260507030013 63 248 0.0 0.0 0.00 0.00 0.00 75 1017.1
20260507024520 64 259 0.0 0.0 0.00 0.00 0.00 72 1017.0
20260507023025 64 250 0.0 0.0 0.00 0.00 0.00 70 1016.9
20260507021523 65 267 0.0 0.0 0.00 0.00 0.00 69 1016.8
20260507020037 66 263 0.0 0.0 0.00 0.00 0.00 67 1016.7
20260507014517 67 261 0.0 2.0 0.00 0.00 0.00 63 1016.7
20260507013019 67 295 0.0 0.0 0.00 0.00 0.00 61 1016.6
20260507011522 68 234 0.0 2.0 0.00 0.00 0.00 61 1016.7
20260507010029 69 259 0.0 1.0 0.00 0.00 0.00 59 1016.6
20260507004532 69 270 0.0 1.0 0.00 0.00 0.00 58 1016.5
20260507003026 69 254 0.0 0.0 0.00 0.00 0.00 57 1016.6
20260507001534 69 179 0.0 1.0 0.00 0.00 0.00 56 1016.5
20260507000024 69 263 0.0 1.0 0.00 0.00 0.00 57 1016.4
20260506234526 69 253 0.0 2.0 0.00 0.00 0.00 60 1016.4
20260506233026 69 280 0.0 2.0 0.00 0.00 0.00 58 1016.3
20260506231519 70 250 0.0 2.0 0.00 0.00 0.00 58 1016.3
20260506230025 70 257 0.0 2.0 0.00 0.00 0.00 57 1016.3
20260506224524 70 226 0.0 2.0 0.00 0.00 0.00 59 1016.4
20260506223026 69 289 0.0 0.0 0.00 0.00 0.00 63 1016.5
20260506221519 69 280 0.0 2.0 0.00 0.00 0.00 61 1016.7
20260506220026 70 260 0.0 2.0 0.00 0.00 0.00 60 1016.9
20260506214508 69 269 0.0 0.0 0.00 0.00 0.00 61 1017.1
20260506213014 69 252 0.0 2.0 0.00 0.00 0.00 61 1017.2
20260506211519 69 275 0.0 2.0 0.00 0.00 0.00 60 1017.3
20260506210024 70 274 0.0 2.0 0.00 0.00 0.00 60 1017.4
20260506204524 69 257 0.0 2.0 0.00 0.00 0.00 61 1017.5
20260506203009 69 266 0.0 2.0 0.00 0.00 0.00 61 1017.5
20260506201515 70 261 0.0 2.0 0.00 0.00 0.00 59 1017.5
20260506200020 70 269 0.0 3.0 0.00 0.00 0.00 60 1017.6
20260506194526 70 275 0.0 1.0 0.00 0.00 0.00 57 1017.7
20260506193025 70 286 0.0 2.0 0.00 0.00 0.00 58 1017.9
20260506191513 70 263 0.0 2.0 0.00 0.00 0.00 57 1018.0
20260506190019 72 257 0.0 2.0 0.00 0.00 0.00 56 1018.0
20260506184528 70 253 0.0 0.0 0.00 0.00 0.00 56 1018.0
20260506183024 71 150 0.0 2.0 0.00 0.00 0.00 54 1018.1
20260506181530 69 242 0.0 2.0 0.00 0.00 0.00 58 1018.3
20260506180024 70 242 0.0 0.0 0.00 0.00 0.00 57 1018.5
20260506174522 69 274 0.0 1.0 0.00 0.00 0.00 56 1018.5
20260506173028 67 273 0.0 0.0 0.00 0.00 0.00 59 1018.7
20260506171525 66 299 0.0 0.0 0.00 0.00 0.00 60 1018.9
20260506170035 67 282 0.0 2.0 0.00 0.00 0.00 61 1018.9
20260506164520 67 343 0.0 2.0 0.00 0.00 0.00 62 1018.7
20260506163024 65 317 0.0 2.0 0.00 0.00 0.00 63 1018.9
20260506161528 65 317 0.0 2.0 0.00 0.00 0.00 65 1018.9
20260506160032 63 345 0.0 2.0 0.00 0.00 0.00 67 1018.8
20260506154529 63 18 0.0 3.0 0.00 0.00 0.00 67 1018.8
20260506153021 63 57 0.0 2.0 0.00 0.00 0.00 66 1018.8
20260506151532 61 352 0.0 2.0 0.00 0.00 0.00 67 1018.9
20260506150025 60 49 0.0 2.0 0.00 0.00 0.00 69 1018.9
20260506144529 59 26 0.0 2.0 0.00 0.00 0.00 72 1018.9
20260506143028 58 24 0.0 0.0 0.00 0.00 0.00 76 1018.9
20260506141524 56 34 0.0 0.0 0.00 0.01 0.00 77 1018.8
20260506140029 55 5 0.0 1.0 0.00 0.03 0.00 79 1018.8
20260506134525 54 360 0.0 0.0 0.00 0.06 0.00 80 1018.6
20260506133041 54 38 0.0 2.0 0.00 0.06 0.00 80 1018.5
20260506131504 54 46 0.0 0.0 0.00 0.06 0.00 80 1018.4
20260506130005 54 23 0.0 2.0 0.00 0.06 0.00 79 1018.3
20260506124503 54 351 0.0 0.0 0.00 0.06 0.00 79 1018.1
20260506123004 55 22 0.0 0.0 0.00 0.06 0.00 80 1018.0
20260506121504 55 26 0.0 0.0 0.00 0.06 0.00 80 1017.9
20260506120004 55 31 0.0 0.0 0.00 0.06 0.00 80 1017.9
20260506114503 55 12 0.0 0.0 0.00 0.07 0.00 79 1017.9
20260506113006 55 360 0.0 0.0 0.00 0.08 0.00 79 1017.9
20260506111503 55 360 0.0 2.0 0.00 0.08 0.00 78 1017.9
20260506110004 56 346 0.0 2.0 0.00 0.08 0.00 78 1017.9
20260506104506 56 10 0.0 0.0 0.00 0.08 0.00 78 1017.9